Regional Weather Roundup
Issued by NWS

Home | Current Version | Previous Version | Text Only | Print | Product List | Glossary Off
Versions: 1 2 3 4 5 6 7 8 9 10 11 12 13 14 15 16 17 18 19 20 21 22 23 24 25 26 27 28 29 30 31 32 33 34 35 36 37 38 39 40 41 42 43 44 45 46 47 48 49 50

000
ASUS43 KFSD 030010
RWRSD

WEATHER ROUNDUP FOR SOUTH DAKOTA
NATIONAL WEATHER SERVICE SIOUX FALLS SD
700 PM CDT SUN AUG 02 2015

NOTE: "FAIR" INDICATES FEW OR NO CLOUDS BELOW 12,000 FEET WITH NO
SIGNIFICANT WEATHER AND/OR OBSTRUCTIONS TO VISIBILITY.


SDZ001>005-009-010-012>017-030100-
NORTHWEST AND NORTH CENTRAL SOUTH DAKOTA

CITY           SKY/WX    TMP DP  RH WIND       PRES   REMARKS
BUFFALO          N/A     84  47  27 NE9       29.93S
FAITH            N/A     85  46  25 N10       29.96S
MOBRIDGE       SUNNY     83  55  38 N10       29.90S
$$

SDZ012>016-024>037-041>051-057-063-072>074-030100-
SOUTHWEST AND SOUTH CENTRAL SOUTH DAKOTA

CITY           SKY/WX    TMP DP  RH WIND       PRES   REMARKS
RAPID CTY ARPT SUNNY     84  54  35 NE8       29.97F
PIERRE         SUNNY     85  49  28 N14       29.89S
CUSTER         MOSUNNY   75  50  41 E13       30.12F
PHILIP         SUNNY     86  53  32 E10       29.91F
PINE RIDGE     SUNNY     85  56  37 E13       29.96S
WINNER         FAIR      87  58  37 NE7       29.91S
$$

SDZ004>011-016>023-039-040-030100-
NORTHEAST SOUTH DAKOTA

CITY           SKY/WX    TMP DP  RH WIND       PRES   REMARKS
ABERDEEN       SUNNY     80  55  42 N10       29.88S
WATERTOWN      MOSUNNY   76  57  51 N14       29.88S
BROOKINGS      SUNNY     77  57  50 NW12      29.88S
SISSETON         N/A     76  55  48 N14       29.85R
$$

SDZ017-020-022-023-036>040-048>070-030100-
SOUTHEAST SOUTH DAKOTA

CITY           SKY/WX    TMP DP  RH WIND       PRES   REMARKS
SIOUX FALLS    SUNNY     81  60  48 N12       29.85S
HURON          SUNNY     80  59  48 N13       29.86F
CHAMBERLAIN    SUNNY     82  60  45 NE7       29.89S
MITCHELL       SUNNY     82  61  48 N8        29.87S
YANKTON        SUNNY     82  64  54 N10       29.83S
$$

ABBREVIATIONS USED IN REMARKS
   TC - TEMPERATURE IN CELSIUS
  WCI - WIND CHILL INDEX
   HX - HEAT INDEX
  VSB - VISIBILITY



USA.gov is the U.S. government's official web portal to all federal, state and local government web resources and services.